GSE Systems Net Profit Margin 2006-2021 | GVP

GSE Systems net profit margin from 2006 to 2021. Net profit margin can be defined as net Income as a portion of total sales revenue.
GSE Systems Net Profit Margin Historical Data
Date TTM Revenue TTM Net Income Net Margin
2021-03-31 $0.05B $-0.01B -11.32%
2020-12-31 $0.06B $-0.01B -17.24%
2020-09-30 $0.06B $-0.02B -24.19%
2020-06-30 $0.07B $-0.02B -21.74%
2020-03-31 $0.08B $-0.01B -16.67%
2019-12-31 $0.08B $-0.01B -13.41%
2019-09-30 $0.09B $-0.00B -4.55%
2019-06-30 $0.09B $-0.00B -4.44%
2019-03-31 $0.09B $-0.00B -3.26%
2018-12-31 $0.09B 0 0.00%
2018-09-30 $0.09B $0.01B 6.52%
2018-06-30 $0.09B $0.01B 7.06%
2018-03-31 $0.08B $0.01B 7.79%
2017-12-31 $0.07B $0.01B 10.00%
2017-09-30 $0.06B $0.00B 1.64%
2017-06-30 $0.06B $0.00B 3.33%
2017-03-31 $0.06B $0.00B 1.82%
2016-12-31 $0.05B $0.00B 1.92%
2016-09-30 $0.05B $0.00B 1.89%
2016-06-30 $0.05B $-0.00B -5.56%
2016-03-31 $0.06B $-0.00B -7.14%
2015-12-31 $0.06B $-0.00B -7.02%
2015-09-30 $0.06B $-0.01B -10.71%
2015-06-30 $0.05B $-0.00B -8.16%
2015-03-31 $0.04B $-0.01B -11.63%
2014-12-31 $0.04B $-0.01B -18.42%
2014-09-30 $0.04B $-0.01B -16.22%
2014-06-30 $0.04B $-0.01B -12.20%
2014-03-31 $0.04B $-0.01B -25.00%
2013-12-31 $0.05B $-0.01B -21.28%
2013-09-30 $0.05B $-0.01B -20.83%
2013-06-30 $0.05B $-0.01B -16.33%
2013-03-31 $0.05B 0 0.00%
2012-12-31 $0.05B $0.00B 3.85%
2012-09-30 $0.05B $0.00B 5.56%
2012-06-30 $0.05B $0.00B 5.56%
2012-03-31 $0.05B $0.00B 5.77%
2011-12-31 $0.05B $0.00B 5.88%
2011-09-30 $0.05B $-0.00B -2.08%
2011-06-30 $0.05B $-0.00B -6.38%
2011-03-31 $0.05B $-0.00B -6.25%
2010-12-31 $0.05B $-0.00B -8.51%
2010-09-30 $0.05B $-0.00B -6.52%
2010-06-30 $0.04B $-0.00B -4.55%
2010-03-31 $0.04B $-0.00B -2.33%
2009-12-31 $0.04B $-0.00B -2.50%
2009-09-30 $0.04B $0.00B 2.70%
2009-06-30 $0.03B $0.00B 2.94%
2009-03-31 $0.03B 0 0.00%
2008-12-31 $0.03B 0 0.00%
2008-09-30 $0.03B 0 0.00%
2008-06-30 $0.03B 0 0.00%
2008-03-31 $0.03B 0 0.00%
2007-12-31 $0.03B 0 0.00%
2007-09-30 $0.03B 0 0.00%
2007-06-30 $0.03B 0 0.00%
2007-03-31 $0.03B 0 0.00%
2006-12-31 $0.03B $-0.00B -3.57%
2006-09-30 $0.02B $-0.00B -12.50%
2006-06-30 $0.02B $-0.00B -18.18%
2006-03-31 $0.02B $-0.01B -22.73%
2005-12-31 $0.02B $-0.01B -22.73%
Sector Industry Market Cap Revenue
Computer and Technology Computer Software $0.029B $0.058B
GSE Systems, Inc. develops and delivers business and technology solutions by applying process control and simulation software, systems and services to the pharmaceutical and chemical research & development, energy, process and manufacturing industries worldwide. The company's products are used in the following industries: specialty chemical, food and beverage, petroleum refining, pharmaceutical, fossil and nuclear power generation, metals and water treatment. (PRESS RELEASE)
Stock Name Country Market Cap PE Ratio
Microsoft (MSFT) United States $2181.672B 39.90
Adobe (ADBE) United States $298.164B 64.26
Oracle (ORCL) United States $244.830B 20.98
Salesforce, Inc (CRM) United States $229.880B 71.13
SAP SE (SAP) Germany $170.480B 21.68
Intuit (INTU) United States $144.398B 68.81
Dassault Systemes SA (DASTY) France $69.806B 68.76
Autodesk (ADSK) United States $68.787B 118.43
VMware (VMW) United States $66.334B 30.87
Synopsys (SNPS) United States $43.495B 55.35
Cadence Design Systems (CDNS) United States $40.535B 62.25
ANSYS (ANSS) United States $31.845B 65.48
SS&C Technologies Holdings (SSNC) United States $19.362B 18.07
PTC (PTC) United States $17.843B 65.25
Nuance Communications (NUAN) United States $15.777B 145.13
Citrix Systems (CTXS) United States $14.271B 31.23
Open Text (OTEX) Canada $14.034B 15.80
Pegasystems (PEGA) United States $11.117B 0.00
Aspen Technology (AZPN) United States $9.920B 43.41
Manhattan Associates (MANH) United States $9.489B 114.74
Trend Micro (TMICY) Japan $7.538B 29.43
Descartes Systems Group (DSGX) Canada $6.043B 105.01
MicroStrategy (MSTR) United States $5.260B 106.66
ACI Worldwide (ACIW) United States $4.157B 22.56
CommVault Systems (CVLT) United States $3.786B 122.63
Blackbaud (BLKB) United States $3.500B 52.33
Cornerstone OnDemand (CSOD) United States $3.239B 21.74
Verint Systems (VRNT) United States $2.761B 16.53
Progress Software (PRGS) United States $2.025B 15.63
PROS Holdings (PRO) United States $1.916B 0.00
Bottomline Technologies (EPAY) United States $1.793B 141.07
QAD (QADB) United States $1.781B 140.98
Avid Technology (AVID) United States $1.668B 47.32
Sapiens (SPNS) Israel $1.393B 25.49
Simulations Plus (SLP) United States $0.953B 83.07
OptimizeRx (OPRX) United States $0.941B 2693.00
Canaan (CAN) China $0.911B 0.00
Magic Software Enterprises (MGIC) Israel $0.847B 22.14
American Software (AMSWA) United States $0.682B 80.15
Icad Inc (ICAD) United States $0.373B 0.00
Smith Micro Software (SMSI) United States $0.304B 71.00
ServiceSource (SREV) United States $0.151B 0.00
Park City (PCYG) United States $0.109B 51.09
Neonode (NEON) Sweden $0.067B 0.00
NetSol Technologies (NTWK) United States $0.048B 19.14
BSQUARE (BSQR) United States $0.038B 0.00